Lid_Strength_Index
-1 -1 -1 -1 -1 -1 -1 -1 -1 -0 0 1 2 1 1 2 3 6 9 7 5 1 3 8 8 8 8 10 9 8 12 12 12 11 11 9 9 8 8 8 7 5 6 4 3
-1 -1 -1 -1 -1 -1 -1 -1 -1 -1 -0 1 1 1 1 2 5 7 3 2 1 1 7 9 10 9 10 10 10 11 12 11 9 10 10 9 8 8 10 9 8 6 4 3 3
-1 -1 -1 -1 -1 -1 -1 -1 -1 -0 -0 0 1 1 1 3 8 7 1 1 0 2 6 8 8 9 11 11 11 11 11 9 10 9 8 8 10 8 10 11 8 8 6 4 4
-1 -1 -1 -1 -1 -1 -1 -1 -1 -1 -1 -1 1 0 2 4 11 4 1 1 0 3 7 8 9 11 12 12 11 12 10 10 8 8 8 9 8 10 10 10 7 6 4 4 4
-1 -1 -1 -1 -1 -1 -1 -1 -1 -1 -1 -1 -1 -1 3 8 7 3 1 0 3 4 8 9 10 11 12 12 11 11 10 9 9 9 8 8 9 9 10 9 7 4 4 5 4
-0 -1 -1 -1 -1 -1 -1 -1 -1 -1 -1 -1 -1 -0 4 11 5 2 4 2 3 6 8 9 10 10 11 12 12 9 9 9 9 9 9 9 10 10 9 9 7 5 5 5 4
-0 -0 -1 -1 -1 -1 -1 -1 -1 -1 -1 -1 -1 1 5 7 5 3 2 3 4 6 8 8 8 10 11 12 9 9 11 10 10 9 10 10 11 11 9 9 8 7 6 6 5
-0 -0 -0 -0 -1 -1 -1 -1 -1 -1 -1 -1 -1 3 8 3 4 4 4 5 5 6 7 7 8 10 11 10 9 10 11 14 11 10 10 10 13 10 9 9 10 9 9 8 6
-0 -0 -0 -1 -0 -1 -1 -1 -1 -1 -1 -1 2 6 9 4 6 5 5 7 7 7 7 8 9 11 11 13 14 14 17 15 13 10 11 12 13 11 10 10 11 11 10 10 9
-0 -0 -0 -0 -1 -1 -1 -1 -1 -1 -0 0 2 8 7 8 6 6 5 5 9 9 9 10 11 13 14 14 16 16 16 14 15 12 12 13 12 12 11 11 11 11 11 11 9
-0 -0 -0 -0 -1 -1 0 2 5 6 5 7 7 8 8 6 5 8 6 7 8 10 13 12 14 15 15 13 12 13 14 14 14 12 12 13 13 11 11 12 12 11 11 10 10
-0 -0 -0 -0 -1 -0 1 6 6 5 9 6 6 6 5 6 9 8 6 9 10 13 12 12 15 12 12 11 11 13 14 15 13 12 13 14 13 12 11 11 11 11 11 10 10
-0 -0 -0 -0 -0 1 4 5 2 4 9 7 6 6 6 7 9 9 8 9 12 13 13 14 13 11 10 12 12 13 14 15 14 13 13 16 16 14 11 11 11 10 10 10 10
-0 -0 -0 -0 2 3 5 2 2 3 12 10 9 6 5 7 9 7 7 10 12 13 12 13 11 10 11 12 12 14 12 12 13 15 18 16 20 16 14 13 12 11 11 11 10
-0 -0 -0 -0 3 4 3 2 2 6 18 10 9 4 5 9 9 9 8 11 12 12 12 14 13 12 12 11 11 13 11 12 13 15 16 17 19 17 15 14 12 12 12 11 11
-0 0 0 2 2 2 2 1 3 12 19 12 9 9 9 9 9 8 9 9 9 11 12 11 10 10 11 11 10 10 12 13 14 15 20 18 18 19 15 14 14 12 11 10 10
-0 1 1 2 5 2 1 4 13 17 10 13 13 10 11 12 11 11 12 13 13 15 15 12 12 11 10 12 11 11 14 18 19 20 21 18 19 17 14 13 12 12 11 11 10
0 1 2 3 2 2 3 9 18 15 12 10 11 10 12 11 11 11 12 14 12 12 14 16 17 13 11 11 13 14 14 18 22 21 20 18 19 15 13 13 11 10 10 10 10
1 2 4 4 2 2 7 15 17 14 11 12 11 12 13 11 12 12 13 13 12 12 15 16 16 12 11 11 11 13 16 13 17 22 20 19 17 14 13 13 12 11 11 11 10
4 5 6 4 2 4 10 14 13 9 9 10 14 12 15 13 14 14 14 12 12 11 13 14 16 12 12 11 11 12 11 16 16 23 24 20 19 18 15 14 13 11 11 11 10
8 10 7 4 2 7 14 13 11 7 8 10 12 12 13 13 13 15 14 13 10 11 11 12 13 14 12 13 14 14 14 14 14 17 20 22 19 15 14 13 13 12 10 10 11
10 13 7 4 9 10 13 11 9 9 8 9 9 10 12 11 13 13 14 12 10 11 13 12 13 16 15 12 12 12 13 13 16 18 17 17 18 13 13 12 12 11 10 10 10
13 13 8 7 13 12 11 11 9 10 9 10 10 9 10 11 14 13 12 10 10 10 12 10 14 18 16 14 12 13 13 12 13 16 18 19 18 12 13 12 11 10 10 9 10
12 14 12 10 12 11 12 12 12 8 9 9 9 9 10 11 10 12 12 10 9 9 8 8 12 14 17 16 14 16 14 13 13 17 17 17 16 14 13 11 11 10 9 9 10
10 13 13 13 13 11 10 11 12 12 9 9 11 10 11 13 12 12 11 11 9 8 10 10 15 14 13 13 13 14 14 13 13 13 15 14 15 13 12 11 10 10 10 10 10
12 13 11 12 12 12 10 12 12 11 11 12 12 10 10 12 11 13 11 11 11 10 11 11 17 14 16 13 13 15 14 13 13 13 13 15 15 12 11 11 10 10 10 10 10
10 9 10 11 12 12 13 12 11 10 11 10 9 10 11 10 9 9 8 8 9 10 11 11 14 16 17 15 16 17 15 14 13 13 13 16 13 12 13 11 10 10 10 10 10